Vorticity
nan nan nan nan nan nan nan nan nan nan nan nan nan nan nan nan nan nan nan nan nan nan nan nan nan nan nan nan nan nan nan nan nan nan nan nan nan nan nan nan nan nan nan nan nan nan nan nan nan nan nan nan nan nan nan nan nan nan nan nan nan nan nan nan nan nan nan nan nan
nan 14 14 15 13 12 12 11 10 10 10 11 11 10 10 9 9 9 9 10 10 10 9 9 9 10 10 9 8 8 8 7 7 7 7 7 7 7 8 8 8 8 8 8 9 10 9 9 10 10 10 10 10 10 10 9 9 10 11 11 12 12 12 12 12 14 15 14 nan
nan 10 11 11 11 10 9 8 8 8 9 9 10 10 10 10 10 10 9 10 10 10 10 9 9 10 10 9 9 9 8 7 7 7 7 8 8 8 7 7 8 8 8 9 9 9 8 9 10 10 9 9 9 9 9 9 10 11 13 14 14 14 13 14 14 15 15 16 nan
nan 9 9 10 9 8 7 8 9 8 7 7 8 9 9 10 10 10 10 10 10 10 10 10 9 9 10 10 10 9 8 8 7 7 8 8 8 8 8 8 8 8 8 8 8 8 8 9 10 10 9 8 9 9 9 8 10 12 12 14 12 12 12 12 13 13 14 14 nan
nan 9 9 9 9 7 8 10 10 8 7 7 8 9 9 9 10 10 10 9 9 9 10 11 10 10 10 11 10 8 7 7 8 8 8 8 7 8 8 9 9 9 8 8 8 8 9 10 11 10 9 9 9 9 8 8 10 11 11 10 10 10 10 11 11 12 13 13 nan
nan 8 9 10 10 9 9 11 10 8 8 8 10 10 10 10 11 11 11 9 9 9 9 10 10 10 9 10 9 8 7 7 8 8 9 8 7 8 9 10 10 9 8 8 9 9 10 11 11 10 9 10 9 8 8 10 12 11 10 9 9 9 10 10 10 11 12 15 nan
nan 9 9 10 10 10 10 10 9 8 8 10 12 11 10 11 12 12 11 9 7 7 7 8 8 8 8 8 8 8 8 7 8 8 9 8 8 9 10 11 10 10 9 9 9 10 10 11 10 10 9 10 10 9 9 11 12 11 10 10 9 9 9 10 11 11 11 15 nan
nan 10 11 11 11 10 10 9 8 9 9 12 12 10 9 10 10 9 7 7 7 7 7 8 8 8 8 8 8 8 9 8 8 8 8 9 9 9 10 11 10 10 9 10 10 10 10 10 10 9 9 10 9 8 8 10 12 11 11 10 9 9 10 10 11 11 10 14 nan
nan 10 10 11 10 10 9 10 10 10 11 12 11 10 9 9 8 6 5 5 7 8 8 8 8 8 8 8 9 9 9 9 9 8 8 9 9 9 9 10 10 10 10 10 11 11 10 10 10 9 9 9 9 8 8 10 12 11 11 10 9 9 10 10 10 11 11 12 nan
nan 8 9 9 9 9 9 9 10 11 11 10 10 9 10 9 6 5 5 7 8 8 8 8 8 8 8 8 8 9 10 10 9 9 9 9 9 9 9 9 9 9 10 10 11 11 10 10 9 9 9 9 9 8 9 10 10 10 11 10 8 9 10 11 10 11 11 11 nan
nan 7 7 8 9 9 8 8 8 9 10 10 9 9 9 7 6 7 8 9 9 8 7 8 8 8 8 8 9 9 10 10 10 10 10 9 9 8 9 9 9 10 10 11 11 11 11 10 9 9 8 9 9 9 8 9 9 9 10 9 9 9 10 10 10 11 10 9 nan
nan 7 8 9 9 9 8 8 8 9 10 10 8 8 7 7 8 9 9 10 9 8 7 8 9 9 8 8 9 9 10 10 11 11 11 10 9 9 9 10 10 11 11 12 12 12 11 10 10 9 8 9 9 9 8 8 8 8 9 8 9 9 9 9 10 11 11 9 nan
nan 7 8 9 9 8 8 8 9 10 10 9 8 7 7 8 8 9 10 10 8 7 7 9 9 9 8 9 9 9 10 12 12 12 11 10 10 10 10 10 10 11 11 12 12 12 12 11 10 9 8 9 9 9 9 9 9 9 8 9 9 9 8 9 10 11 12 11 nan
nan 8 8 7 7 8 8 9 9 10 10 8 7 7 7 7 8 9 10 10 8 8 8 9 8 9 9 9 9 10 11 13 13 12 11 9 10 10 10 9 10 10 11 12 12 12 11 10 9 9 9 8 9 9 10 10 10 10 9 9 9 9 8 9 10 11 12 11 nan
nan 7 6 7 8 8 9 9 9 10 9 7 6 7 7 7 8 9 10 9 8 8 8 8 8 8 9 9 10 11 12 13 13 11 9 8 8 9 9 9 9 10 10 11 11 11 11 10 10 9 9 9 9 9 10 10 10 10 10 10 10 9 9 9 10 11 11 10 nan
nan 6 6 7 8 9 9 8 9 10 9 7 7 7 7 7 8 9 9 9 8 8 9 7 7 7 8 9 10 12 13 12 11 10 8 7 7 8 9 9 9 9 10 10 10 10 10 11 11 11 10 9 9 9 10 10 10 10 10 10 10 10 10 10 10 11 11 10 nan
nan 7 6 8 9 8 8 8 9 10 9 9 8 7 7 8 9 9 9 9 9 9 9 7 7 8 8 9 11 12 13 11 10 10 9 8 8 8 8 8 8 8 8 8 8 8 9 11 12 12 11 9 9 9 10 10 9 9 9 9 10 10 11 11 11 11 11 11 nan
nan 7 7 8 8 8 8 8 8 9 9 8 7 7 7 8 9 9 10 10 11 11 10 9 9 10 10 11 11 12 13 12 11 10 10 9 8 7 7 7 6 7 7 7 7 7 7 9 10 10 10 9 9 9 10 10 10 9 9 9 9 10 10 11 12 12 12 11 nan
nan 7 7 7 8 8 9 8 7 7 7 8 8 7 8 8 9 9 10 11 12 13 13 12 12 11 12 12 12 12 12 11 11 10 9 8 8 7 7 7 6 7 7 7 7 7 7 7 8 8 8 8 9 9 10 10 10 9 9 9 9 9 10 10 11 12 12 12 nan
nan 7 6 7 8 8 8 7 7 7 7 9 9 8 7 7 8 9 9 10 12 13 14 14 13 12 11 11 11 11 10 10 11 9 8 8 8 7 7 7 7 8 8 8 8 7 7 7 8 8 8 7 8 8 9 9 9 9 9 8 8 9 9 10 10 11 11 11 nan
nan 7 6 8 9 8 8 8 9 9 9 9 9 8 7 7 7 8 9 10 11 12 13 13 13 11 10 9 9 9 9 10 10 9 8 7 8 7 7 7 7 7 7 8 7 7 7 7 8 8 8 8 7 7 7 8 8 8 8 8 9 9 9 9 10 10 10 10 nan
nan 8 9 9 9 9 9 10 11 10 10 9 8 8 8 7 7 8 9 10 11 12 12 12 12 11 10 9 8 8 8 9 9 9 8 7 8 7 7 7 8 7 7 7 7 7 7 8 8 9 8 9 8 8 7 7 7 7 8 8 8 8 8 9 9 9 9 10 nan
nan 8 10 11 11 11 10 10 11 10 9 8 8 8 8 8 9 10 11 11 11 11 11 10 11 11 10 10 10 9 8 8 8 8 8 7 7 7 7 8 9 8 7 7 7 6 6 8 10 10 10 10 10 9 8 8 7 7 7 7 7 7 8 8 9 9 10 10 nan
nan 9 9 12 13 11 9 9 10 9 8 7 8 9 9 9 11 11 11 10 10 10 10 10 10 11 11 11 10 9 8 7 7 7 7 7 7 7 7 8 8 8 7 7 3 1 0 3 8 11 12 12 12 11 10 9 8 8 8 7 6 6 7 8 9 9 9 10 nan
nan 10 10 11 10 9 9 9 9 7 6 7 9 9 9 10 11 11 9 9 9 9 10 10 9 9 10 10 10 9 8 8 8 7 6 6 6 7 7 8 8 8 8 5 1 -3 -3 -3 1 6 11 14 13 11 10 10 10 9 9 8 7 6 6 7 8 8 8 8 nan
nan 10 9 9 9 9 9 8 7 6 6 8 10 9 9 10 11 10 9 9 8 9 9 8 8 9 9 9 10 9 9 9 9 8 7 6 6 6 7 7 8 9 8 4 2 2 4 5 4 4 7 12 12 11 10 10 11 10 10 9 8 7 7 6 6 6 6 7 nan
nan 10 9 9 10 9 8 7 7 7 8 10 10 9 9 11 11 11 9 8 8 8 8 8 8 8 8 8 10 9 8 9 10 10 9 8 7 6 6 7 8 8 7 4 5 7 10 14 14 11 6 7 10 11 10 10 11 11 11 10 10 10 9 8 6 6 5 5 nan
nan 10 10 10 9 8 7 8 9 9 9 9 9 9 10 11 11 10 8 7 7 7 7 7 8 8 8 9 9 9 8 9 9 10 9 9 9 8 7 7 7 6 5 5 7 9 11 15 17 16 10 4 5 9 10 10 10 10 10 11 11 11 10 9 8 7 6 5 nan
nan 10 11 10 8 7 8 9 9 8 8 8 9 10 11 10 10 8 8 8 7 6 6 7 8 9 10 9 9 9 9 9 9 10 10 9 8 8 8 7 7 7 6 6 8 10 11 12 15 17 17 5 0 7 9 10 10 10 10 10 11 11 10 9 9 9 8 7 nan
nan 11 11 9 8 8 8 8 8 8 8 9 11 11 10 8 8 7 7 6 5 5 6 9 11 10 9 8 8 8 8 8 9 10 10 9 7 7 7 7 7 8 8 9 10 11 12 11 11 15 23 13 1 5 9 11 11 11 10 11 12 11 10 9 9 9 9 9 nan
nan 11 11 10 9 8 8 8 9 9 9 11 11 10 8 7 7 6 6 5 5 7 8 10 10 9 7 7 8 8 7 7 8 9 10 9 8 8 8 9 8 8 8 9 11 12 13 10 8 14 28 22 5 5 9 12 12 11 12 12 12 11 9 9 9 9 9 8 nan
nan 12 11 10 8 8 8 9 10 10 11 11 10 8 7 6 6 7 7 7 8 10 10 8 7 6 6 7 7 8 7 7 7 8 8 8 8 8 9 10 10 9 9 10 11 12 12 9 9 19 33 26 7 7 10 12 11 12 13 13 13 11 9 9 9 9 8 7 nan
nan 12 11 10 8 8 9 10 10 10 10 9 8 7 6 5 7 9 9 9 10 11 11 8 7 7 8 8 7 7 8 8 8 8 8 8 8 8 8 10 12 11 10 10 11 12 11 9 16 29 36 21 4 7 10 11 11 12 12 13 12 11 10 10 10 9 8 8 nan
nan 11 11 10 9 8 9 10 10 10 9 8 7 7 6 7 9 9 8 8 9 11 12 11 9 9 10 10 10 10 9 8 8 9 9 10 10 10 9 9 10 11 9 10 11 12 14 19 32 38 32 10 1 6 10 10 10 11 12 11 10 9 10 10 10 10 9 8 nan
nan 9 9 9 9 9 10 10 10 9 8 7 7 6 6 8 9 9 9 8 8 9 10 11 11 11 11 11 13 13 12 10 8 9 10 12 12 12 10 8 8 9 10 12 16 21 28 38 42 33 17 1 2 7 10 9 10 11 11 9 8 8 8 10 10 10 10 10 nan
nan 8 8 8 9 10 10 10 9 8 8 7 6 6 6 7 8 10 10 10 8 9 10 11 11 11 10 10 12 13 14 13 12 11 12 13 13 11 10 8 7 10 14 20 27 33 37 38 30 17 5 0 5 9 10 9 9 10 10 9 7 8 8 10 10 10 10 11 nan
nan 7 7 8 8 8 8 9 8 8 7 7 7 6 7 7 7 9 11 10 9 10 10 10 10 10 10 9 9 10 12 13 14 13 13 13 11 10 9 7 7 10 18 27 32 30 26 20 12 6 1 3 8 9 9 9 9 10 9 8 7 8 9 10 12 12 12 11 nan
nan 7 7 7 7 8 7 7 7 7 7 7 7 8 8 8 7 9 10 9 9 11 10 9 9 10 10 10 10 9 10 11 13 13 13 12 10 9 8 8 7 10 18 26 24 17 12 8 6 3 2 5 8 9 8 9 10 10 9 7 7 7 9 10 12 14 14 15 nan
nan 9 9 8 7 7 7 7 7 7 7 7 7 8 8 7 8 10 11 9 9 11 11 9 8 9 11 11 10 9 9 11 13 13 12 11 10 9 7 7 8 11 15 18 14 9 6 5 5 4 2 4 7 8 9 9 10 9 9 8 7 7 8 9 12 14 16 20 nan
nan 11 10 9 8 8 7 7 6 7 8 9 10 9 8 7 8 10 10 9 10 11 10 9 10 10 12 11 9 9 9 10 12 13 13 12 11 10 6 5 8 10 13 13 9 6 5 5 6 4 0 2 7 9 10 10 9 9 8 7 7 7 7 8 9 11 13 19 nan
nan nan nan nan nan nan nan nan nan nan nan nan nan nan nan nan nan nan nan nan nan nan nan nan nan nan nan nan nan nan nan nan nan nan nan nan nan nan nan nan nan nan nan nan nan nan nan nan nan nan nan nan nan nan nan nan nan nan nan nan nan nan nan nan nan nan nan nan nan
CAPE
nan nan nan nan nan nan nan nan nan nan nan nan nan nan nan nan nan nan nan nan nan nan nan nan nan nan nan nan nan nan nan nan nan nan nan nan nan nan nan nan nan nan nan 0 1 1 1 2 2 2 3 3 3 nan nan nan nan nan nan nan nan nan nan nan nan nan nan nan nan
nan nan nan nan nan nan nan nan nan nan nan nan nan nan nan nan nan nan nan nan nan nan nan nan nan nan nan nan nan nan nan nan nan nan nan nan nan nan nan nan nan nan nan nan nan nan 1 0 0 0 0 nan nan nan nan nan nan nan nan nan 0 nan nan nan nan nan nan nan nan
nan nan nan nan nan nan nan nan nan nan nan nan nan nan nan nan nan nan nan nan nan nan nan nan nan nan nan nan nan nan nan nan nan nan nan nan nan nan nan nan nan nan nan nan nan nan nan nan 0 0 nan nan nan nan nan nan 0 0 0 nan nan nan nan nan nan nan nan nan nan
nan nan nan nan nan nan nan nan nan nan nan nan nan nan nan nan nan nan nan nan nan nan nan nan nan nan nan nan nan nan nan nan nan nan nan nan nan nan nan nan nan nan nan nan nan nan nan nan nan nan nan nan nan nan nan nan 0 nan nan nan nan nan nan nan nan nan nan nan nan
nan nan nan nan nan nan nan nan nan nan nan nan nan nan nan nan nan nan nan nan nan nan nan nan nan nan nan nan nan nan nan nan nan nan nan nan nan nan nan nan nan nan nan nan nan nan nan nan nan nan nan nan nan nan nan 0 nan nan nan nan nan nan nan nan nan nan nan nan nan
nan nan nan nan nan nan nan nan nan nan nan nan nan nan nan nan nan nan nan nan nan nan nan nan nan nan nan nan nan nan nan nan nan nan nan nan nan nan nan nan nan nan nan nan nan nan nan nan nan nan nan nan nan nan nan nan nan nan nan nan nan nan nan nan nan nan nan nan nan
nan nan nan nan nan nan nan nan nan nan nan nan nan nan nan nan nan nan nan nan nan nan nan nan nan nan nan nan nan nan nan nan nan nan nan nan nan nan nan nan nan nan nan nan nan nan nan nan nan nan nan nan nan nan nan nan nan nan nan nan nan nan nan nan nan nan nan nan nan
nan nan nan nan nan nan nan nan nan nan nan nan nan nan nan nan nan nan nan nan nan nan nan nan nan nan nan nan nan nan nan nan nan nan nan nan nan nan nan nan nan nan nan nan nan nan nan nan nan nan nan nan nan nan nan nan nan nan nan nan nan nan nan nan nan nan nan nan nan
nan nan nan nan nan nan nan nan nan nan nan nan nan nan nan nan nan nan nan nan nan nan nan nan nan nan nan nan nan nan nan nan nan nan nan nan nan nan nan nan nan nan nan nan nan nan nan nan nan nan nan nan nan nan nan nan nan nan nan nan nan nan nan nan nan nan nan nan nan
nan nan nan nan nan nan nan nan nan nan nan nan nan nan nan nan nan nan nan nan nan nan nan nan nan nan nan nan nan nan nan nan nan nan nan nan nan nan nan nan nan nan nan nan nan nan nan nan nan nan nan nan nan nan nan nan nan nan nan nan nan nan nan nan nan nan nan nan nan
nan nan nan nan nan nan nan nan nan nan nan nan nan nan nan nan nan nan nan nan nan nan nan nan nan nan nan nan nan nan nan nan nan nan nan nan nan nan nan nan nan nan nan nan nan nan nan nan nan nan nan nan nan nan nan nan nan nan nan nan nan nan nan nan nan nan nan nan nan
nan nan nan nan nan nan nan nan nan nan nan nan nan nan nan nan nan nan nan nan nan nan nan nan nan nan nan nan nan nan nan nan nan nan nan nan nan nan nan nan nan nan nan nan nan nan nan nan nan nan nan nan nan nan nan nan nan nan nan nan nan nan nan nan nan nan nan nan nan
nan nan nan nan nan nan nan nan nan nan nan nan nan nan nan nan nan nan nan nan nan nan nan nan nan nan nan nan nan nan nan nan nan nan nan nan nan nan nan nan nan nan nan nan nan nan nan nan nan nan nan nan nan nan nan nan nan nan nan nan nan nan nan nan nan nan nan nan nan
nan nan nan nan nan nan nan nan nan nan nan nan nan nan nan nan nan nan nan nan nan nan nan nan nan nan nan nan nan nan nan nan nan nan nan nan nan nan nan nan nan nan nan nan nan nan nan nan nan nan nan nan nan nan nan nan nan nan nan nan nan nan nan nan nan nan nan nan nan
nan nan nan nan nan nan nan nan nan nan nan nan nan nan nan nan nan nan nan nan nan nan nan nan nan nan nan nan nan nan nan nan nan nan nan nan nan nan nan nan nan nan nan nan nan nan nan nan nan nan nan nan nan nan nan nan nan nan nan nan nan nan nan nan nan nan nan nan nan
nan nan nan nan nan nan nan nan nan nan nan nan nan nan nan nan nan nan nan nan nan nan nan nan nan nan nan nan nan nan nan nan nan nan nan nan nan nan nan nan nan nan nan nan nan nan nan nan nan nan nan nan nan nan nan nan nan nan nan nan nan nan nan nan nan nan nan nan nan
nan nan nan nan nan nan nan nan nan nan nan nan nan nan nan nan nan nan nan nan nan nan nan nan nan nan nan nan nan nan nan nan nan nan nan nan nan nan nan nan nan nan nan nan nan nan nan nan nan nan nan nan nan nan nan nan nan nan nan nan nan nan nan nan nan nan nan nan nan
nan nan nan nan nan nan nan nan nan nan nan nan nan nan nan nan nan nan nan nan nan nan nan nan nan nan nan nan nan nan nan nan nan nan nan nan nan nan nan nan nan nan nan nan nan nan nan nan nan nan nan nan nan nan nan nan nan nan nan nan nan nan nan nan nan nan nan nan nan
nan nan nan nan nan nan nan nan nan nan nan nan nan nan nan nan nan nan nan nan nan nan nan nan nan nan nan nan nan nan nan nan nan nan nan nan nan nan nan nan nan nan nan nan nan nan nan nan nan nan nan nan nan nan nan nan nan nan nan nan nan nan nan nan nan nan nan nan nan
nan nan nan nan nan nan nan nan nan nan nan nan nan nan nan nan nan nan nan nan nan nan nan nan nan nan nan nan nan nan nan nan nan nan nan nan nan nan nan nan nan nan nan nan nan nan nan nan nan nan nan nan nan nan nan nan nan nan nan nan nan nan nan nan nan nan nan nan nan
nan nan nan nan nan nan nan nan nan nan nan nan nan nan nan nan nan nan nan nan nan nan nan nan nan nan nan nan nan nan nan nan nan nan nan nan nan nan nan nan nan nan nan nan nan nan nan nan nan nan nan nan nan nan nan nan nan nan nan nan nan nan nan nan nan nan nan nan nan
nan nan nan nan nan nan nan nan nan nan nan nan nan nan nan nan nan nan nan nan nan nan nan nan nan nan nan nan nan nan nan nan nan nan nan nan nan nan nan nan nan nan nan nan nan nan nan nan nan nan nan nan nan nan nan nan nan nan nan nan nan nan nan nan nan nan nan nan nan
nan nan nan nan nan nan nan nan nan nan nan nan nan nan nan nan nan nan nan nan nan nan nan nan nan nan nan nan nan nan nan nan nan nan nan nan nan nan nan nan nan nan nan nan nan nan nan nan nan nan nan nan nan nan nan nan nan nan nan nan nan nan nan nan nan nan nan nan nan
nan nan nan nan nan nan nan nan nan nan nan nan nan nan nan nan nan nan nan nan nan nan nan nan nan nan nan nan nan nan nan nan nan nan nan nan nan nan nan nan nan nan nan nan nan nan nan nan nan nan nan nan nan nan nan nan nan nan nan nan nan nan nan nan nan nan nan nan nan
nan nan nan nan nan nan nan nan nan nan nan nan nan nan nan nan nan nan nan nan nan nan nan nan nan nan nan nan nan nan nan nan nan nan nan nan nan nan nan nan nan nan nan nan 0 0 4 5 0 0 nan nan nan nan nan nan nan nan nan nan nan nan nan nan nan nan nan nan nan
nan nan nan nan nan nan nan nan nan nan nan nan nan nan nan nan nan nan nan nan nan nan nan nan nan nan nan nan nan nan nan nan nan nan nan nan nan nan nan nan nan nan nan nan 3 3 7 10 14 14 3 nan nan nan nan nan nan nan nan nan nan nan nan nan nan nan nan nan nan
nan nan nan nan nan nan nan nan nan nan nan nan nan nan nan nan nan nan nan nan nan nan nan nan nan nan nan nan nan nan nan nan nan nan nan nan nan nan nan nan nan nan nan nan 6 6 9 12 17 17 13 nan nan nan nan nan nan nan nan nan nan nan nan nan nan nan nan nan nan
nan nan nan nan nan nan nan nan nan nan nan nan nan nan nan nan nan nan nan nan nan nan nan nan nan nan nan nan nan nan nan nan nan nan nan nan nan nan nan nan nan nan nan nan 11 11 14 15 19 19 22 0 nan nan nan nan nan nan nan nan nan nan nan nan nan nan nan nan nan
nan nan nan nan nan nan nan nan nan nan nan nan nan nan nan nan nan nan nan nan nan nan nan nan nan nan nan nan nan nan nan nan nan nan nan nan nan nan nan nan nan nan nan 10 18 18 19 19 20 20 27 4 nan nan nan nan nan nan nan nan nan nan nan nan nan nan nan nan nan
nan nan nan nan nan nan nan nan nan nan nan nan nan nan nan nan nan nan nan nan nan nan nan nan nan nan nan nan nan nan nan nan nan nan nan nan nan nan nan nan nan nan nan 16 24 24 24 23 18 18 26 18 nan nan nan nan nan nan nan nan nan nan nan nan nan nan nan nan nan
nan nan nan nan nan nan nan nan nan nan nan nan nan nan nan nan nan nan nan nan nan nan nan nan nan nan nan nan nan nan nan nan nan nan nan nan nan nan nan nan nan nan nan 16 24 24 25 21 15 15 21 25 nan nan nan nan nan nan nan nan nan nan nan nan nan nan nan nan nan
nan nan nan nan nan nan nan nan nan nan nan nan nan nan nan nan nan nan nan nan nan nan nan nan nan 0 0 0 nan nan nan nan nan nan nan nan nan nan nan nan nan nan nan 15 22 22 21 21 16 16 22 21 nan nan nan nan nan nan nan nan nan nan nan nan nan nan nan nan nan
nan nan nan nan nan nan nan nan nan nan nan nan nan nan nan nan nan nan nan nan nan nan nan 0 nan 0 0 0 nan nan nan nan nan nan nan nan nan nan nan nan nan 0 0 15 18 18 19 18 16 16 27 8 nan nan nan nan nan nan nan nan nan nan nan nan nan nan nan nan nan
nan nan nan nan nan nan nan nan nan nan nan nan nan nan nan nan nan nan nan nan nan nan nan nan nan nan nan nan nan nan nan nan nan nan nan nan nan nan nan nan nan 0 0 11 13 13 15 17 23 23 23 1 nan nan nan nan nan nan nan nan nan nan nan nan nan nan nan nan nan
nan nan nan nan nan nan nan nan nan nan nan nan nan nan nan nan nan nan nan nan nan nan nan nan nan nan nan nan nan nan nan 0 nan nan nan nan nan nan nan nan nan 0 0 7 11 11 18 24 22 22 4 1 nan nan nan nan nan nan nan nan nan nan nan nan nan nan nan nan nan
nan nan nan nan nan nan nan nan nan nan nan nan nan nan nan nan nan nan nan nan nan nan nan nan nan nan nan nan nan nan nan nan nan 0 0 nan nan nan nan nan nan nan nan 6 16 16 19 16 6 6 2 nan nan nan nan nan nan nan nan nan nan nan nan nan nan nan nan nan nan
nan nan nan nan nan nan nan nan nan nan nan nan nan nan nan nan nan nan nan nan nan nan nan nan nan nan nan nan nan nan nan nan nan 0 0 nan nan nan nan nan nan nan nan 12 13 13 12 3 3 3 0 nan nan nan nan nan nan nan nan nan nan nan nan nan nan nan nan nan nan
nan nan nan nan nan nan nan nan nan nan nan nan nan nan nan nan nan nan nan nan nan nan nan nan nan nan nan nan nan nan nan nan nan nan nan nan nan nan nan nan nan nan nan 7 12 12 5 4 1 1 nan nan nan nan nan nan nan nan nan nan nan nan nan nan nan nan nan nan nan
nan nan nan nan nan nan nan nan nan nan nan nan nan nan nan nan nan nan nan nan nan nan nan nan nan nan nan nan nan nan nan nan nan nan nan nan nan nan nan nan nan nan nan 2 11 11 5 4 1 1 nan nan nan nan nan nan nan nan nan nan nan nan nan nan nan nan nan nan nan
nan nan nan nan nan nan nan nan nan nan nan nan nan nan nan nan nan nan nan nan nan nan nan nan nan nan nan nan nan nan nan nan nan nan nan nan nan nan nan nan nan nan nan 2 11 11 5 4 1 1 nan nan nan nan nan nan nan nan nan nan nan nan nan nan nan nan nan nan nan
nan nan nan nan nan nan nan nan nan nan nan nan nan nan nan nan nan nan nan nan nan nan nan nan nan nan nan nan nan nan nan nan nan nan nan nan nan nan nan nan nan nan nan nan 9 9 8 7 4 4 nan nan nan nan nan nan nan nan nan nan nan nan nan nan nan nan nan nan nan